Погода в Разномойке

Россия / Оренбургская область     52°29′10″N   55°52′27″E
темп.,
°C
ветер,
м/с
пор.,
м/с
влажн.,
%
обл.,
%
осадки,
мм/ч
давл.,
гПа
погр.,
м
5 августа, чт
чт523:00+26юв61437100 0.0 1010269
02:00+25ю5143693 0.0 1010313
05:00+22ююз2243100 0.0 101012
08:00+25ссз4734100 0.0 1011242
11:00+32ссв442673 0.0 10101069
14:00+34с432589 0.0 10101939
17:00+33ссз5425100 0.0 10081739
20:00+29сз46395 0.3 1008196
6 августа, пт
пт623:00+20ссв4977100 1.3 1009156
02:00+18с4118593 0.0 1011227
05:00+18ссв51285100 0.0 1011262
08:00+20ссв7127297 0.0 1012446
11:00+26ссв883581 0.0 10121176
14:00+29с76230 0.0 10122588
17:00+29с662488 0.0 10112694
20:00+26ссв6929100 0.0 1013788
7 августа, сб
сб723:00+19св384975 0.0 1014122
02:00+17всв33575 0.0 101534
05:00+15ссв336287 0.0 101624
08:00+19ссв454554 0.0 1017236
11:00+25с4525100 0.0 10171458
14:00+28с55187 0.0 10161903
17:00+29с67195 0.0 10162010
20:00+26св58260 0.0 1017417
8 августа, вс
вс823:00+19всв344412 0.0 101859
02:00+18ссв334977 0.0 101937
05:00+17ссв2253100 0.0 102025
08:00+21св23405 0.0 1020198
11:00+28св2229100 0.0 10201083
14:00+32ссв22225 0.0 10192212
17:00+33ссз33215 0.0 10182712
20:00+29с332684 0.0 101845
9 августа, пн
пн923:00+23вюв353993 0.0 101861
02:00+22ююв2243100 0.0 101814
05:00+20юв224792 0.0 101813
08:00+25ю473985 0.0 1018266
11:00+32ююз4624100 0.0 10171366
14:00+35юз451859 0.0 10163616
17:00+34зюз551896 0.0 10153363
20:00+31сз232188 0.0 101441